#timestamp,LO_Frequency,Hit,StdDev 
1594314015.6,286047004.2,N
1594314035.4,286047004.3,Y
1594314055.3,286047000.8,P
1594314075.1,286047001.2,N
1594314076.0,286047001.2,N
1594314095.8,286046996.6,Y
1594314115.7,286046994.9,P
1594314135.5,286046996.7,N
1594314155.3,286046996.5,N
1594314175.2,286046999.2,N
1594314195.0,286046998.9,N
1594314195.9,286046998.9,N
1594314215.8,286046997.5,N
1594314235.6,286046996.8,N
1594314255.4,286046995.1,N
1594314275.3,286046991.7,Y
1594314295.1,286046993.7,P
1594314315.9,286046994.6,N
1594314335.7,286046992.7,P
1594314355.5,286046991.4,Y
1594314375.4,286046993.4,P
1594314395.2,286046993.8,P
1594314415.0,286046994.2,P
1594314416.0,286046994.2,Y
1594314435.8,286047001.1,P
1594314455.6,286046998.3,N
1594314475.5,286047001.0,N
1594314495.3,286047001.0,N
1594314515.2,286047000.6,N
1594314535.9,286046998.1,N
1594314555.7,286047001.2,N
1594314575.6,286046998.4,N
1594314595.4,286047011.9,Y
1594314615.3,286047002.8,P
1594314635.1,286047001.5,N
1594314636.0,286047001.5,N
1594314655.8,286047002.7,N
1594314675.7,286047002.5,N
1594314695.5,286047000.4,N
1594314715.4,286047001.2,N
1594314735.2,286047000.0,N
1594314755.0,286047000.7,N
1594314755.9,286047000.7,N
1594314775.8,286047000.6,N
1594314795.6,286047000.0,N
1594314815.5,286047000.7,N
1594314835.3,286047000.5,N
1594314855.1,286047000.2,N
1594314875.9,286046999.8,N
1594314895.7,286047000.0,N
1594314915.6,286047004.0,Y
1594314935.4,286047002.5,P
1594314955.2,286047001.4,N
1594314975.1,286047004.2,P
1594314976.0,286047004.2,Y
1594314995.8,286046998.1,P
1594315015.6,286046998.3,N
1594315035.5,286046998.2,N
1594315055.3,286046998.1,N
1594315075.2,286046998.1,N
1594315095.9,286046998.1,N
1594315115.7,286047000.8,N
1594315135.6,286047000.7,N
1594315155.4,286047001.0,N
1594315175.2,286047002.4,N
1594315195.1,286047002.8,N
1594315196.0,286047002.8,N
1594315215.8,286047001.9,N
1594315235.7,286047003.1,N
1594315255.5,286047004.3,N
1594315275.3,286047001.8,N
1594315295.2,286046999.8,N
1594315315.0,286047001.0,N
1594315315.9,286047001.0,N
1594315335.8,286047000.1,N
1594315355.6,286047000.6,N
1594315375.4,286046999.8,N
1594315395.3,286047001.2,N
1594315415.1,286046999.1,N
1594315435.9,286046996.7,N
1594315455.7,286046999.3,N
1594315475.5,286046998.7,N
1594315495.4,286046998.1,N
1594315515.2,286046998.7,N
1594315535.0,286046998.4,N
1594315535.9,286046998.4,N
1594315555.8,286046998.3,N
1594315575.6,286046999.6,N
1594315595.5,286046997.1,N
1594315615.3,286046999.3,N
1594315635.1,286046999.4,N
1594315655.9,286046998.8,N
1594315675.7,286046998.5,N
1594315695.5,286046998.9,N
1594315715.4,286047001.2,N
1594315735.2,286047001.0,N
1594315755.1,286047001.0,N
1594315756.0,286047001.0,N
1594315775.8,286046998.4,N
1594315795.6,286046999.3,N
1594315815.5,286046998.4,N
1594315835.3,286046998.9,N
1594315855.2,286046998.4,N
1594315875.9,286046998.2,N
1594315895.7,286046999.1,N
1594315915.6,286046999.2,N
1594315935.4,286046999.4,N
1594315955.2,286046999.6,N
1594315975.1,286046997.3,N
1594315976.0,286046997.3,N
1594315995.8,286046999.2,N
1594316015.7,286046996.6,Y
1594316035.5,286047000.5,P
1594316055.3,286047000.5,N
1594316075.2,286046999.9,N
1594316095.0,286046999.8,N
1594316095.9,286046999.8,N
1594316115.8,286046999.8,N
1594316135.6,286047002.4,Y
1594316155.4,286047000.2,P
1594316175.3,286047000.5,P
1594316195.1,286047000.0,N
1594316215.8,286047000.2,N
1594316235.7,286047001.8,Y
1594316255.5,286047002.8,P
1594316275.4,286046999.7,N
1594316295.2,286047001.3,N
1594316315.0,286047002.0,N
1594316315.9,286047002.0,N
1594316335.8,286047001.6,N
1594316355.6,286047002.0,N
1594316375.5,286047001.9,N
1594316395.3,286047004.4,Y
1594316415.1,286046999.8,P
1594316435.9,286047001.8,N
1594316455.7,286047002.5,N
1594316475.5,286047002.1,N
1594316495.4,286047001.4,N
1594316515.2,286047000.1,N
1594316535.1,286047002.3,N
1594316536.0,286047002.3,N
1594316555.8,286046999.8,N
1594316575.6,286047002.2,N
1594316595.5,286047002.4,N
1594316615.3,286046999.7,N
1594316635.2,286046999.8,N
1594316655.9,286047002.3,N
1594316675.7,286047002.0,N
1594316695.6,286047001.8,N
1594316715.4,286047004.1,Y
1594316735.2,286047000.5,P
1594316755.1,286046998.5,P
1594316756.0,286046998.5,N
1594316775.8,286047001.0,N
1594316795.7,286047000.9,N
1594316815.5,286047002.7,N
1594316835.3,286047000.3,N
1594316855.2,286047000.4,N
1594316875.0,286047002.3,N
1594316875.9,286047002.3,N
1594316895.8,286047002.5,N
1594316915.6,286047002.8,N
1594316935.4,286047001.5,N
1594316955.3,286047001.5,N
1594316975.1,286047001.9,N
1594316995.8,286046999.9,N
1594317015.7,286046999.7,N
1594317035.5,286047000.9,N
1594317055.4,286046998.2,N
1594317075.2,286046999.0,N
1594317095.0,286046999.6,N
1594317095.9,286046999.6,N
1594317115.8,286046997.6,N
1594317135.6,286046998.0,N
1594317155.5,286046995.2,Y
1594317175.3,286046995.2,P
1594317195.1,286046995.5,N
1594317215.9,286046995.7,N
1594317235.7,286046995.2,N
1594317255.6,286046995.7,N
1594317275.4,286046996.1,N
1594317295.2,286046996.2,N
1594317315.1,286046993.4,Y
1594317316.0,286046993.4,P
1594317335.8,286046999.0,N
1594317355.6,286046999.7,N
1594317375.5,286047001.3,N
1594317395.3,286047004.0,N
1594317415.2,286047004.3,N
1594317435.9,286047001.3,N
1594317455.7,286047003.4,N
1594317475.6,286047002.9,N
1594317495.4,286047002.9,N
1594317515.3,286047006.0,N
1594317535.1,286047003.4,N
1594317536.0,286047003.4,N
1594317555.8,286047002.2,N
1594317575.7,286047001.8,N
1594317595.5,286047003.0,N
